User: anonymous   Login
Location: Callao
(39.8979°N, 113.7141°W)
Time: 09:24:38
(UTC+00:00)
Language:

AO-91 - Orbit

View from above orbital plane
View from above orbital plane
View from above satellite
View from above satellite

Ground track
Ground track

The orbit data is extracted from the following two-line orbital elements,

1 43017U 17073E   22272.50299632  .00003539  00000-0  26724-3 0  9998
2 43017  97.6590 162.4129 0245581 206.5846 152.2602 14.82087608262523
Epoch (UTC): 29 September 2022 12:04:18
Eccentricity: 0.0245581
inclination: 97.6590°
perigee height: 451 km
apogee height: 794 km
right ascension of ascending node: 162.4129°
argument of perigee: 206.5846°
revolutions per day: 14.82087608
mean anomaly at epoch: 152.2602°
orbit number at epoch: 26252

The dashed part of the orbit path shows where the satellite is in the earth's shadow,  

DLR